#timestamp,LO_Frequency,Hit 
1500861615.1,286047008.6,N
1500861616.0,286047008.6,N
1500861635.8,286047010.8,N
1500861655.6,286047008.3,N
1500861675.5,286047010.8,N
1500861695.3,286047008.7,N
1500861715.1,286047007.7,N
1500861735.9,286047009.1,N
1500861755.7,286047009.2,N
1500861775.6,286047010.6,N
1500861795.4,286047008.0,N
1500861815.2,286047008.8,N
1500861835.1,286047008.4,N
1500861836.0,286047008.4,N
1500861855.8,286047008.5,N
1500861875.7,286047008.6,N
1500861895.5,286047009.6,N
1500861915.3,286047010.8,N
1500861935.2,286047009.9,N
1500861955.0,286047009.9,N
1500861955.9,286047009.9,N
1500861975.7,286047010.4,N
1500862025.6,286047010.8,Y
1500862035.5,286047002.9,N
1500862055.4,286046999.6,N
1500862075.2,286046998.2,N
1500862095.1,286047000.5,N
1500862096.0,286047000.5,N
1500862115.8,286046998.5,N
1500862135.6,286047001.2,N
1500862155.5,286046998.1,N
1500862175.3,286046998.5,N
1500862195.2,286046999.0,N
1500862215.9,286047001.2,N
1500862235.7,286047000.8,N
1500862255.6,286047001.2,N
1500862275.4,286047001.2,N
1500862295.2,286047001.2,N
1500862315.1,286046998.5,N
1500862316.0,286046998.5,N
1500862335.8,286046999.3,N
1500862355.7,286046997.0,N
1500862375.5,286046996.7,N
1500862395.3,286046997.8,N
1500862415.2,286046994.9,N
1500862435.0,286046995.1,N
1500862435.9,286046995.1,N
1500862455.7,286046995.6,N
1500862475.6,286046996.0,N
1500862495.4,286046996.2,N
1500862515.3,286046993.4,N
1500862535.1,286046993.8,N
1500862555.8,286046994.0,N
1500862575.7,286046996.0,N
1500862595.5,286046993.4,N
1500862615.4,286046993.6,N
1500862635.2,286046994.1,N
1500862655.0,286046993.4,N
1500862655.9,286046993.4,N
1500862675.8,286046992.2,N
1500862695.6,286046992.1,N
1500862715.4,286046991.9,N
1500862735.3,286046992.3,N
1500862755.1,286046991.9,N
1500862775.9,286046992.4,N
1500862795.7,286046990.5,N
1500862815.5,286046990.6,N
1500862835.4,286046989.1,N
1500862855.2,286046989.1,N
1500862875.1,286046991.2,N
1500862876.0,286046991.2,N
1500862895.8,286046988.6,N
1500862915.6,286046989.3,N
1500862935.5,286046989.3,N
1500862955.3,286046987.2,N
1500862975.1,286046987.0,N
1500862995.9,286046987.2,N
1500863015.7,286046987.0,N
1500863035.6,286046987.3,N
1500863055.4,286046989.5,N
1500863075.2,286046987.3,N
1500863095.1,286046986.9,N
1500863096.0,286046986.9,N
1500863115.8,286046986.9,N
1500863135.7,286046990.0,N
1500863155.5,286046987.3,N
1500863175.4,286046987.0,N
1500863195.2,286046987.9,N
1500863215.0,286046987.4,N
1500863215.9,286046987.4,N
1500863235.8,286046987.5,N
1500863255.6,286046988.3,N
1500863275.5,286046985.6,N
1500863295.3,286046987.6,N
1500863315.1,286046987.1,N
1500863335.9,286046987.1,N
1500863355.7,286046987.7,N
1500863375.6,286046987.4,N
1500863395.4,286046987.7,N
1500863415.2,286046987.0,N
1500863435.1,286046987.5,N
1500863436.0,286046987.5,N
1500863455.8,286046987.2,N
1500863475.6,286046987.9,N
1500863495.5,286046985.5,N
1500863515.3,286046986.1,N
1500863535.2,286046985.9,N
1500863555.9,286046986.5,N
1500863575.7,286046985.6,N
1500863595.6,286046985.8,N
1500863615.4,286046986.1,N
1500863635.2,286046983.7,N
1500863655.1,286046986.4,N
1500863656.0,286046986.4,N
1500863675.8,286046986.6,N
1500863695.7,286046986.3,N
1500863715.5,286046984.1,N
1500863735.3,286046984.6,N
1500863755.2,286046984.5,N
1500863775.0,286046984.6,N
1500863775.9,286046984.6,N
1500863795.8,286046986.8,N
1500863815.6,286046986.8,N
1500863835.4,286046984.4,N
1500863855.3,286046984.1,N
1500863875.1,286046986.3,N
1500863895.9,286046982.1,N
1500863915.7,286046984.7,N
1500863935.5,286046983.3,N
1500863955.4,286046982.3,N
1500863975.2,286046982.8,N
1500863995.0,286046982.3,N
1500863996.0,286046982.3,N
1500864015.8,286046982.5,N
1500864035.6,286046985.0,N
1500864055.5,286046984.7,N
1500864075.3,286046983.9,N
1500864095.1,286046984.5,N
1500864115.9,286046984.1,N
1500864135.7,286046985.9,N
1500864155.6,286046986.2,N
1500864175.4,286046986.3,N
1500864195.2,286046986.8,N
1500864215.1,286046986.4,N
1500864216.0,286046986.4,N
1500864235.8,286046986.5,N
1500864255.6,286046985.8,N
1500864275.5,286046987.8,N
1500864295.3,286046988.4,N
1500864315.2,286046987.1,N
1500864335.9,286046987.1,N
1500864355.7,286046987.8,N
1500864375.6,286046987.5,N
1500864395.4,286046989.2,N
1500864415.2,286046989.6,N
1500864435.1,286046988.7,N
1500864436.0,286046988.7,N
1500864455.8,286046991.0,N
1500864475.7,286046988.8,N
1500864495.5,286046989.5,N
1500864515.3,286046988.9,N
1500864535.2,286046991.2,N
1500864555.0,286046991.1,N
1500864555.9,286046991.1,N
1500864575.8,286046990.6,N
1500864595.6,286046991.1,N
1500864615.4,286046991.3,N
1500864635.3,286046990.6,N
1500864655.1,286046990.4,N
1500864675.9,286046990.6,N
1500864695.7,286046992.3,N
1500864715.5,286046990.6,N
1500864735.4,286046990.3,N
1500864755.2,286046990.8,N
1500864775.0,286046990.4,N
1500864775.9,286046990.4,N
1500864795.8,286046990.3,N
1500864815.6,286046993.1,N
1500864835.5,286046990.8,N
1500864855.3,286046990.6,N
1500864875.1,286046990.7,N
1500864895.9,286046990.2,N
1500864915.7,286046993.2,N
1500864935.5,286046992.8,N
1500864955.4,286046990.2,N
1500864975.2,286046992.5,N
1500864995.1,286046992.6,N
1500864996.0,286046992.6,N
1500865015.8,286046992.8,N
1500865035.6,286046992.8,N
1500865055.5,286046992.0,N
1500865075.3,286046993.2,N
1500865095.2,286046992.3,N
1500865115.9,286046992.4,N
1500865135.7,286046993.0,N
1500865155.6,286046991.7,N
1500865175.4,286046991.7,N
1500865195.2,286046991.7,N
